(12) Victoria
ephemeris date magn radius delta ra dec elong phase
Today30 May 202511.71.918 AU2.330 AU00h44m+11°37'54.0°25.3°
Opposition5 Nov 20259.82.291 AU1.300 AU02h38m+18°46'176.8°1.4°
(12) Victoria - 2025-05-30
astro.vanbuitenen.nl


 
-1 year
-1 month
-1 day
Now
+1 day
+1 month
+1 year

The interactive orbit chart above shows the body's path through the solar system and its position at the given date. Green and blue lines are shown perpendicular to the ecliptic plane: Green if the path is above the ecliptic plane, blue if it is below. (Left-click and drag to rotate the view; Right-click and drag to move the view; Use scroll wheel to zoom in our out.)

The orbital elements of Victoria are:

            e (Eccentricity)                : 0.2200210
            a (Semimajor axis)              : 2.3339296
            i (Inclination)                 : 8.37404
            Ω (Longitude of ascending node) : 235.35314
            ω (Argument of perihelion)      : 69.53911
            M (Mean anomaly)                : 21.64689
            Epoch                           : 2025 May 05

            L (Longitude of perihelion)     : 304.69029
            B (Latitude of perihelion)      : 7.84229
            P (Orbital period in years)     : 3.57            
        

The light curve chart below shows the estimated development of the minor planet's magnitude.


The all-sky chart below shows the path of the minor planet over the same period as the light curve. The current position is marked yellow.





The following chart shows the path of the minor planet in the next few days. The field of view is optimized for (~10x50) binoculars and finderscopes. A more printer-friendly version of the same chart can be found below.




Ephemerides:
Date       Time       RA (2000)    DEC (2000)    delta   radius  elong  phase   PA    magn
2025-05-30 00:00 UT   00 44 25.7   +11 37 13     2.330    1.918   54.0   25.3   251   11.7 
2025-05-30 01:51 UT   00 44 34.8   +11 38 12     2.330    1.918   54.0   25.3   251   11.7 
2025-05-31 00:00 UT   00 46 23.8   +11 49 46     2.324    1.920   54.4   25.4   251   11.7 
2025-06-01 00:00 UT   00 48 21.7   +12 02 15     2.318    1.922   54.9   25.6   251   11.7 
2025-06-02 00:00 UT   00 50 19.1   +12 14 38     2.311    1.924   55.3   25.7   251   11.7 
2025-06-03 00:00 UT   00 52 16.3   +12 26 57     2.305    1.925   55.7   25.8   251   11.7 
2025-06-04 00:00 UT   00 54 13.1   +12 39 10     2.298    1.927   56.1   25.9   251   11.7 
2025-06-05 00:00 UT   00 56 09.5   +12 51 19     2.292    1.929   56.6   26.0   251   11.7 
2025-06-06 00:00 UT   00 58 05.6   +13 03 23     2.286    1.931   57.0   26.2   251   11.7 
2025-06-07 00:00 UT   01 00 01.3   +13 15 21     2.279    1.933   57.5   26.3   251   11.7 
2025-06-08 00:00 UT   01 01 56.7   +13 27 15     2.272    1.935   57.9   26.4   251   11.7 
2025-06-09 00:00 UT   01 03 51.7   +13 39 03     2.266    1.937   58.3   26.5   251   11.7 
2025-06-10 00:00 UT   01 05 46.3   +13 50 46     2.259    1.938   58.8   26.6   251   11.7 
2025-06-11 00:00 UT   01 07 40.6   +14 02 24     2.252    1.940   59.2   26.7   251   11.7 
2025-06-12 00:00 UT   01 09 34.5   +14 13 56     2.246    1.942   59.7   26.8   251   11.7 
2025-06-13 00:00 UT   01 11 28.0   +14 25 23     2.239    1.944   60.1   26.9   251   11.7 
2025-06-14 00:00 UT   01 13 21.1   +14 36 45     2.232    1.946   60.6   27.0   251   11.7 
2025-06-15 00:00 UT   01 15 13.8   +14 48 01     2.225    1.948   61.1   27.1   251   11.7 


    Terminology:
            
    delta:  distance between minor planet and earth in AU
    radius: distance between minor planet and sun in AU
    magn:   magnitude (brightness) estimate    
    ra:     right ascension in hours (24h = 360deg)
    dec:    declination in degrees
    elong:  elongation in degrees (angle sun-earth-minor planet)    
    phase:  phase angle in degrees (angle sun-minor planet-earth)        
    AU:     Astronomical Unit (mean distance between earth and sun: 149597870.7 km
    

Orbital elements provided by the MPC (Minor Planet Center).
Calculations by a modified version of AAPlus, a C# implementation of the AA+ project by PJ Naughter from the algorithms presented in the book "Astronomical Algorithms" by Jean Meeus.
NGC2000 dso catalog and star labels from VizieR as provided by the Strasbourg astronomical Data Center.
Tycho2 catalog from the ESO archive.